CKS200 KJFK-KATL

Flight info

Callsign CKS200
Flight time 1h 53m
Altitude 30000
Route RBV Q430 BYRDD J48 MOL FLASK OZZZI2
Aircraft B77L/H-SDE2E3FGHIJ5LORVWXY/LB1D1

Departure

Time 2026-05-09 02:03
Airport John F. Kennedy International Airport (KJFK)

Arrival

Time 2026-05-09 03:57
Airport Hartsfield Jackson Atlanta International Airport (KATL)
Time Latitude Longitude Altitude Speed Heading
2026-05-09 01:37 40.65405 -73.79662 28 ft 0 kts 90°
2026-05-09 01:49 40.65405 -73.79670 28 ft 2 kts 90°
2026-05-09 01:49 40.65406 -73.79690 28 ft 2 kts 90°
2026-05-09 01:49 40.65406 -73.79709 28 ft 2 kts 90°
2026-05-09 01:50 40.65406 -73.79729 28 ft 2 kts 101°
2026-05-09 01:50 40.65411 -73.79747 28 ft 2 kts 123°
2026-05-09 01:50 40.65420 -73.79762 28 ft 2 kts 141°
2026-05-09 01:50 40.65434 -73.79773 28 ft 2 kts 160°
2026-05-09 01:51 40.65447 -73.79777 28 ft 1 kts 178°
2026-05-09 01:51 40.65453 -73.79778 28 ft 0 kts 180°
2026-05-09 01:53 40.65442 -73.79777 28 ft 5 kts 178°
2026-05-09 01:54 40.65381 -73.79777 28 ft 10 kts 180°
2026-05-09 01:54 40.65307 -73.79773 28 ft 10 kts 168°
2026-05-09 01:54 40.65234 -73.79730 28 ft 12 kts 150°
2026-05-09 01:54 40.65169 -73.79683 28 ft 7 kts 159°
2026-05-09 01:55 40.65126 -73.79707 28 ft 8 kts 221°
2026-05-09 01:55 40.65077 -73.79760 28 ft 10 kts 213°
2026-05-09 01:55 40.65003 -73.79798 28 ft 12 kts 191°
2026-05-09 01:55 40.64911 -73.79806 28 ft 13 kts 180°
2026-05-09 01:56 40.64819 -73.79806 28 ft 13 kts 176°
2026-05-09 01:56 40.64725 -73.79764 28 ft 15 kts 148°
2026-05-09 01:56 40.64630 -73.79676 28 ft 17 kts 144°
2026-05-09 01:56 40.64531 -73.79605 28 ft 15 kts 167°
2026-05-09 01:57 40.64426 -73.79591 28 ft 15 kts 179°
2026-05-09 01:57 40.64315 -73.79596 28 ft 16 kts 183°
2026-05-09 01:57 40.64201 -73.79607 28 ft 16 kts 184°
2026-05-09 01:57 40.64085 -73.79597 28 ft 16 kts 163°
2026-05-09 01:58 40.63988 -73.79511 28 ft 17 kts 128°
2026-05-09 01:58 40.63918 -73.79365 28 ft 20 kts 120°
2026-05-09 01:58 40.63839 -73.79189 28 ft 24 kts 120°
2026-05-09 01:58 40.63744 -73.78979 28 ft 28 kts 121°
2026-05-09 01:59 40.63643 -73.78758 28 ft 27 kts 121°
2026-05-09 01:59 40.63548 -73.78547 28 ft 26 kts 120°
2026-05-09 01:59 40.63458 -73.78348 28 ft 24 kts 121°
2026-05-09 01:59 40.63373 -73.78162 28 ft 23 kts 121°
2026-05-09 02:00 40.63329 -73.77998 28 ft 17 kts 91°
2026-05-09 02:00 40.63331 -73.77869 28 ft 12 kts 108°
2026-05-09 02:00 40.63290 -73.77763 28 ft 13 kts 120°
2026-05-09 02:00 40.63236 -73.77646 28 ft 16 kts 121°
2026-05-09 02:01 40.63173 -73.77509 28 ft 19 kts 121°
2026-05-09 02:01 40.63099 -73.77346 28 ft 21 kts 121°
2026-05-09 02:01 40.63026 -73.77185 28 ft 19 kts 120°
2026-05-09 02:01 40.62972 -73.77092 28 ft 9 kts 163°
2026-05-09 02:02 40.62909 -73.77116 28 ft 10 kts 208°
2026-05-09 02:02 40.62841 -73.77166 28 ft 11 kts 210°
2026-05-09 02:02 40.62817 -73.77218 28 ft 6 kts 294°
2026-05-09 02:02 40.62853 -73.77296 28 ft 24 kts 301°
2026-05-09 02:03 40.63077 -73.77788 28 ft 99 kts 301°
2026-05-09 02:03 40.63549 -73.78830 29 ft 165 kts 301°
2026-05-09 02:03 40.64201 -73.80251 408 ft 188 kts 301°
2026-05-09 02:03 40.64729 -73.81758 1372 ft 181 kts 278°
2026-05-09 02:04 40.64633 -73.83392 1886 ft 193 kts 252°
2026-05-09 02:04 40.63862 -73.84925 2275 ft 213 kts 222°
2026-05-09 02:04 40.62669 -73.86100 3011 ft 216 kts 218°
2026-05-09 02:04 40.61482 -73.87210 3954 ft 210 kts 219°
2026-05-09 02:05 40.60295 -73.88326 4659 ft 213 kts 221°
2026-05-09 02:05 40.59202 -73.89713 5132 ft 225 kts 233°
2026-05-09 02:05 40.58158 -73.91324 5578 ft 243 kts 233°
2026-05-09 02:05 40.57039 -73.93060 6244 ft 252 kts 233°
2026-05-09 02:06 40.55920 -73.94792 7151 ft 251 kts 234°
2026-05-09 02:06 40.54798 -73.96529 7968 ft 253 kts 234°
2026-05-09 02:06 40.53650 -73.98304 8739 ft 256 kts 234°
2026-05-09 02:07 40.51333 -74.01886 10237 ft 262 kts 235°
2026-05-09 02:07 40.50133 -74.03744 10660 ft 277 kts 235°
2026-05-09 02:07 40.48849 -74.05736 11001 ft 295 kts 236°
2026-05-09 02:07 40.47474 -74.07864 11410 ft 311 kts 235°
2026-05-09 02:08 40.46042 -74.10080 11779 ft 329 kts 235°
2026-05-09 02:08 40.44523 -74.12425 12249 ft 343 kts 235°
2026-05-09 02:08 40.42985 -74.14791 13077 ft 347 kts 236°
2026-05-09 02:08 40.41415 -74.17200 13980 ft 350 kts 236°
2026-05-09 02:09 40.39829 -74.19636 14833 ft 354 kts 236°
2026-05-09 02:09 40.38228 -74.22089 15736 ft 357 kts 236°
2026-05-09 02:09 40.36610 -74.24568 16550 ft 361 kts 236°
2026-05-09 02:09 40.34973 -74.27074 17327 ft 366 kts 237°
2026-05-09 02:10 40.33304 -74.29627 18072 ft 371 kts 236°
2026-05-09 02:10 40.31618 -74.32201 18884 ft 374 kts 236°
2026-05-09 02:10 40.29942 -74.34757 19741 ft 375 kts 237°
2026-05-09 02:10 40.28246 -74.37342 20469 ft 379 kts 237°
2026-05-09 02:11 40.26528 -74.39959 21200 ft 383 kts 237°
2026-05-09 02:11 40.24800 -74.42586 22000 ft 384 kts 237°
2026-05-09 02:11 40.23078 -74.45275 22729 ft 383 kts 241°
2026-05-09 02:11 40.21630 -74.48216 23299 ft 381 kts 249°
2026-05-09 02:12 40.20561 -74.51334 23853 ft 381 kts 256°
2026-05-09 02:12 40.19858 -74.54674 24538 ft 378 kts 264°
2026-05-09 02:12 40.19521 -74.58021 25254 ft 376 kts 268°
2026-05-09 02:12 40.19270 -74.61449 26018 ft 376 kts 268°
2026-05-09 02:13 40.19019 -74.64833 26711 ft 376 kts 268°
2026-05-09 02:13 40.18760 -74.68220 27359 ft 378 kts 267°
2026-05-09 02:13 40.18493 -74.71664 28056 ft 380 kts 266°
2026-05-09 02:13 40.18226 -74.75066 28674 ft 382 kts 266°
2026-05-09 02:14 40.17949 -74.78566 29111 ft 390 kts 266°
2026-05-09 02:14 40.17667 -74.82109 29578 ft 396 kts 266°
2026-05-09 02:14 40.17381 -74.85677 30219 ft 397 kts 266°
2026-05-09 02:14 40.17094 -74.89233 31040 ft 392 kts 266°
2026-05-09 02:15 40.16810 -74.92732 32012 ft 382 kts 266°
2026-05-09 02:15 40.16534 -74.96112 32948 ft 372 kts 266°
2026-05-09 02:15 40.16257 -74.99500 33669 ft 367 kts 265°
2026-05-09 02:15 40.15987 -75.02817 33943 ft 370 kts 265°
2026-05-09 02:16 40.15709 -75.06192 33964 ft 371 kts 265°
2026-05-09 02:16 40.15159 -75.12842 33983 ft 368 kts 265°
2026-05-09 02:17 40.14604 -75.19514 33979 ft 367 kts 266°
2026-05-09 02:17 40.14047 -75.26149 33977 ft 367 kts 266°
2026-05-09 02:18 40.13487 -75.32780 33972 ft 367 kts 266°
2026-05-09 02:18 40.12924 -75.39399 33970 ft 366 kts 266°
2026-05-09 02:19 40.12363 -75.45962 33977 ft 367 kts 265°
2026-05-09 02:19 40.11791 -75.52595 33970 ft 366 kts 265°
2026-05-09 02:20 40.11219 -75.59180 33970 ft 366 kts 265°
2026-05-09 02:20 40.10646 -75.65736 33949 ft 361 kts 265°
2026-05-09 02:20 40.10359 -75.68994 33728 ft 358 kts 265°
2026-05-09 02:21 40.10078 -75.72182 33395 ft 355 kts 265°
2026-05-09 02:21 40.09797 -75.75373 33062 ft 355 kts 265°
2026-05-09 02:21 40.09482 -75.78630 32721 ft 360 kts 262°
2026-05-09 02:21 40.08820 -75.81805 32373 ft 368 kts 254°
2026-05-09 02:22 40.07693 -75.84854 32027 ft 380 kts 246°
2026-05-09 02:22 40.06253 -75.87772 31691 ft 385 kts 244°
2026-05-09 02:22 40.04772 -75.90688 31347 ft 387 kts 244°
2026-05-09 02:22 40.03290 -75.93602 30991 ft 388 kts 244°
2026-05-09 02:23 40.01788 -75.96555 30640 ft 391 kts 244°
2026-05-09 02:23 40.00282 -75.99516 30290 ft 396 kts 244°
2026-05-09 02:23 39.98737 -76.02554 29973 ft 398 kts 243°
2026-05-09 02:24 39.95696 -76.08521 29984 ft 403 kts 244°
2026-05-09 02:24 39.92579 -76.14624 29977 ft 403 kts 244°
2026-05-09 02:25 39.89458 -76.20727 29970 ft 403 kts 243°
2026-05-09 02:25 39.86361 -76.26771 29979 ft 403 kts 244°
2026-05-09 02:26 39.83226 -76.32879 29956 ft 404 kts 243°
2026-05-09 02:26 39.80117 -76.38926 29967 ft 404 kts 243°
2026-05-09 02:27 39.76986 -76.45002 29953 ft 402 kts 243°
2026-05-09 02:27 39.73854 -76.51070 29966 ft 405 kts 243°
2026-05-09 02:28 39.70710 -76.57150 29955 ft 404 kts 244°
2026-05-09 02:28 39.67593 -76.63164 29959 ft 401 kts 243°
2026-05-09 02:29 39.64450 -76.69219 29981 ft 403 kts 243°
2026-05-09 02:29 39.61330 -76.75218 29966 ft 403 kts 243°
2026-05-09 02:30 39.58201 -76.81220 29967 ft 402 kts 243°
2026-05-09 02:30 39.55045 -76.87265 29967 ft 402 kts 243°
2026-05-09 02:31 39.51934 -76.93212 29956 ft 400 kts 243°
2026-05-09 02:31 39.48417 -76.98923 29950 ft 416 kts 231°
2026-05-09 02:32 39.43967 -77.03701 29961 ft 419 kts 229°
2026-05-09 02:32 39.39444 -77.08457 29964 ft 417 kts 228°
2026-05-09 02:33 39.34942 -77.13185 29972 ft 416 kts 228°
2026-05-09 02:33 39.30453 -77.17893 29955 ft 417 kts 228°
2026-05-09 02:34 39.25960 -77.22597 29975 ft 416 kts 229°
2026-05-09 02:34 39.21481 -77.27279 29945 ft 418 kts 228°
2026-05-09 02:35 39.16951 -77.32005 29948 ft 417 kts 228°
2026-05-09 02:35 39.12447 -77.36699 29956 ft 418 kts 228°
2026-05-09 02:36 39.07969 -77.41354 29938 ft 415 kts 227°
2026-05-09 02:36 39.03466 -77.46030 29926 ft 415 kts 228°
2026-05-09 02:37 38.98975 -77.50685 29946 ft 416 kts 228°
2026-05-09 02:37 38.94471 -77.55347 29942 ft 417 kts 228°
2026-05-09 02:38 38.89977 -77.59988 29943 ft 414 kts 228°
2026-05-09 02:38 38.85475 -77.64633 29941 ft 418 kts 228°
2026-05-09 02:39 38.80930 -77.69312 29964 ft 418 kts 227°
2026-05-09 02:39 38.76400 -77.73968 29968 ft 417 kts 227°
2026-05-09 02:40 38.71869 -77.78619 29971 ft 419 kts 227°
2026-05-09 02:40 38.67329 -77.83267 29968 ft 416 kts 227°
2026-05-09 02:41 38.63121 -77.88264 29975 ft 411 kts 238°
2026-05-09 02:41 38.59708 -77.94042 29974 ft 403 kts 240°
2026-05-09 02:42 38.56352 -77.99777 29970 ft 405 kts 240°
2026-05-09 02:42 38.52990 -78.05501 29962 ft 403 kts 240°
2026-05-09 02:43 38.49626 -78.11213 29965 ft 402 kts 240°
2026-05-09 02:43 38.46250 -78.16936 29966 ft 405 kts 240°
2026-05-09 02:44 38.42886 -78.22623 29958 ft 402 kts 239°
2026-05-09 02:44 38.39512 -78.28321 29967 ft 404 kts 240°
2026-05-09 02:45 38.36120 -78.34038 29965 ft 404 kts 239°
2026-05-09 02:45 38.32740 -78.39720 29974 ft 403 kts 240°
2026-05-09 02:46 38.29371 -78.45379 29973 ft 403 kts 240°
2026-05-09 02:46 38.25986 -78.51052 29966 ft 400 kts 240°
2026-05-09 02:47 38.22609 -78.56704 29973 ft 402 kts 240°
2026-05-09 02:47 38.19245 -78.62324 29969 ft 402 kts 240°
2026-05-09 02:48 38.15850 -78.67987 29992 ft 405 kts 239°
2026-05-09 02:48 38.12458 -78.73631 29998 ft 398 kts 239°
2026-05-09 02:49 38.09106 -78.79205 29997 ft 403 kts 239°
2026-05-09 02:49 38.05698 -78.84856 29978 ft 402 kts 239°
2026-05-09 02:50 38.02319 -78.90453 29978 ft 401 kts 239°
2026-05-09 02:50 37.98936 -78.96044 29997 ft 399 kts 239°
2026-05-09 02:51 37.95588 -79.01570 29994 ft 397 kts 239°
2026-05-09 02:51 37.92217 -79.07127 29976 ft 397 kts 240°
2026-05-09 02:52 37.88724 -79.12551 29993 ft 399 kts 236°
2026-05-09 02:52 37.84991 -79.17755 29995 ft 400 kts 236°
2026-05-09 02:53 37.81260 -79.22944 29983 ft 399 kts 236°
2026-05-09 02:53 37.77543 -79.28108 29994 ft 400 kts 236°
2026-05-09 02:54 37.73810 -79.33285 29984 ft 396 kts 236°
2026-05-09 02:54 37.70092 -79.38435 29973 ft 397 kts 236°
2026-05-09 02:55 37.66378 -79.43571 29991 ft 396 kts 236°
2026-05-09 02:55 37.62667 -79.48695 29992 ft 394 kts 236°
2026-05-09 02:56 37.58975 -79.53789 29977 ft 398 kts 236°
2026-05-09 02:56 37.55273 -79.58879 29987 ft 394 kts 236°
2026-05-09 02:57 37.51555 -79.63989 29976 ft 394 kts 236°
2026-05-09 02:57 37.47846 -79.69076 30016 ft 392 kts 236°
2026-05-09 02:58 37.44183 -79.74094 30001 ft 390 kts 236°
2026-05-09 02:58 37.40485 -79.79154 29988 ft 391 kts 236°
2026-05-09 02:59 37.36851 -79.84113 30019 ft 385 kts 236°
2026-05-09 02:59 37.33194 -79.89105 30025 ft 388 kts 236°
2026-05-09 03:00 37.29548 -79.94066 30007 ft 386 kts 236°
2026-05-09 03:00 37.25909 -79.99013 30010 ft 386 kts 236°
2026-05-09 03:01 37.22264 -80.03959 29993 ft 385 kts 236°
2026-05-09 03:01 37.18633 -80.08882 30002 ft 387 kts 236°
2026-05-09 03:02 37.15009 -80.13783 30009 ft 382 kts 236°
2026-05-09 03:02 37.11382 -80.18684 30005 ft 382 kts 236°
2026-05-09 03:03 37.07774 -80.23552 30031 ft 383 kts 236°
2026-05-09 03:03 37.04146 -80.28438 30001 ft 379 kts 236°
2026-05-09 03:04 37.00558 -80.33231 30020 ft 383 kts 235°
2026-05-09 03:04 36.96838 -80.37981 30018 ft 381 kts 235°
2026-05-09 03:05 36.93139 -80.42703 30015 ft 379 kts 234°
2026-05-09 03:05 36.89468 -80.47390 30007 ft 378 kts 235°
2026-05-09 03:06 36.85786 -80.52088 30014 ft 378 kts 235°
2026-05-09 03:06 36.82093 -80.56793 30014 ft 377 kts 235°
2026-05-09 03:07 36.78442 -80.61440 30015 ft 378 kts 235°
2026-05-09 03:07 36.74746 -80.66138 30034 ft 379 kts 235°
2026-05-09 03:08 36.71056 -80.70819 30046 ft 378 kts 234°
2026-05-09 03:08 36.67380 -80.75474 30034 ft 377 kts 235°
2026-05-09 03:09 36.63697 -80.80135 30038 ft 377 kts 234°
2026-05-09 03:09 36.60033 -80.84762 30038 ft 373 kts 234°
2026-05-09 03:10 36.56373 -80.89384 30033 ft 378 kts 235°
2026-05-09 03:10 36.52713 -80.93990 30033 ft 373 kts 234°
2026-05-09 03:11 36.49031 -80.98625 30028 ft 377 kts 234°
2026-05-09 03:11 36.45374 -81.03217 30036 ft 374 kts 235°
2026-05-09 03:12 36.41681 -81.07851 30034 ft 376 kts 234°
2026-05-09 03:12 36.38018 -81.12437 30026 ft 374 kts 235°
2026-05-09 03:13 36.32517 -81.19317 30037 ft 374 kts 234°
2026-05-09 03:13 36.28871 -81.23872 30032 ft 372 kts 235°
2026-05-09 03:14 36.25208 -81.28449 30022 ft 374 kts 235°
2026-05-09 03:14 36.21549 -81.33012 30034 ft 375 kts 235°
2026-05-09 03:15 36.17874 -81.37587 30014 ft 373 kts 234°
2026-05-09 03:15 36.14234 -81.42113 30023 ft 371 kts 234°
2026-05-09 03:16 36.10596 -81.46632 30016 ft 373 kts 234°
2026-05-09 03:16 36.06947 -81.51154 30017 ft 371 kts 235°
2026-05-09 03:17 36.03295 -81.55677 30010 ft 372 kts 234°
2026-05-09 03:17 35.99652 -81.60183 30015 ft 371 kts 234°
2026-05-09 03:18 35.96011 -81.64678 30025 ft 372 kts 235°
2026-05-09 03:18 35.92354 -81.69186 30052 ft 369 kts 234°
2026-05-09 03:19 35.88665 -81.73733 30048 ft 374 kts 233°
2026-05-09 03:19 35.84996 -81.78240 30046 ft 369 kts 234°
2026-05-09 03:20 35.81343 -81.82728 30050 ft 372 kts 234°
2026-05-09 03:20 35.77686 -81.87187 30044 ft 372 kts 233°
2026-05-09 03:21 35.73963 -81.91644 30035 ft 374 kts 232°
2026-05-09 03:21 35.70234 -81.96100 30039 ft 373 kts 233°
2026-05-09 03:22 35.66510 -82.00548 30028 ft 372 kts 233°
2026-05-09 03:22 35.62803 -82.04974 30034 ft 375 kts 232°
2026-05-09 03:23 35.59081 -82.09409 30036 ft 373 kts 233°
2026-05-09 03:23 35.55349 -82.13854 30036 ft 375 kts 232°
2026-05-09 03:24 35.51612 -82.18295 30032 ft 375 kts 233°
2026-05-09 03:24 35.47876 -82.22729 30032 ft 372 kts 232°
2026-05-09 03:25 35.44146 -82.27154 30033 ft 377 kts 232°
2026-05-09 03:25 35.40420 -82.31653 30026 ft 373 kts 234°
2026-05-09 03:26 35.36773 -82.36211 30025 ft 374 kts 233°
2026-05-09 03:26 35.33121 -82.40756 30026 ft 374 kts 233°
2026-05-09 03:27 35.29476 -82.45280 30031 ft 373 kts 233°
2026-05-09 03:27 35.25850 -82.49773 30022 ft 375 kts 233°
2026-05-09 03:28 35.22165 -82.54330 30020 ft 374 kts 233°
2026-05-09 03:28 35.18508 -82.58847 30018 ft 375 kts 233°
2026-05-09 03:29 35.14825 -82.63363 30006 ft 374 kts 232°
2026-05-09 03:29 35.11076 -82.67808 30035 ft 381 kts 232°
2026-05-09 03:30 35.07308 -82.72272 30034 ft 373 kts 231°
2026-05-09 03:30 35.03555 -82.76723 30031 ft 379 kts 231°
2026-05-09 03:31 34.99758 -82.81215 30035 ft 379 kts 232°
2026-05-09 03:31 34.95999 -82.85659 30036 ft 376 kts 231°
2026-05-09 03:32 34.92203 -82.90125 30034 ft 381 kts 230°
2026-05-09 03:32 34.88410 -82.94514 30048 ft 379 kts 231°
2026-05-09 03:33 34.84562 -82.98966 30042 ft 383 kts 230°
2026-05-09 03:33 34.80719 -83.03400 29718 ft 374 kts 231°
2026-05-09 03:34 34.78856 -83.05552 29052 ft 373 kts 231°
2026-05-09 03:34 34.76998 -83.07694 28811 ft 362 kts 230°
2026-05-09 03:34 34.75186 -83.09780 28456 ft 357 kts 230°
2026-05-09 03:34 34.73336 -83.11923 27997 ft 377 kts 230°
2026-05-09 03:35 34.71426 -83.14127 27469 ft 380 kts 230°
2026-05-09 03:35 34.69521 -83.16318 26951 ft 377 kts 230°
2026-05-09 03:35 34.67640 -83.18478 26452 ft 374 kts 230°
2026-05-09 03:35 34.65765 -83.20631 25943 ft 373 kts 231°
2026-05-09 03:36 34.63866 -83.22814 25416 ft 374 kts 231°
2026-05-09 03:36 34.61984 -83.24975 24905 ft 374 kts 231°
2026-05-09 03:36 34.60091 -83.27146 24381 ft 375 kts 231°
2026-05-09 03:36 34.58207 -83.29307 23868 ft 374 kts 231°
2026-05-09 03:37 34.56317 -83.31471 23349 ft 373 kts 232°
2026-05-09 03:37 34.54448 -83.33615 22833 ft 372 kts 232°
2026-05-09 03:37 34.52557 -83.35792 22300 ft 371 kts 231°
2026-05-09 03:37 34.50702 -83.37927 21782 ft 371 kts 230°
2026-05-09 03:38 34.48845 -83.40062 21264 ft 368 kts 231°
2026-05-09 03:38 34.46991 -83.42191 20750 ft 365 kts 230°
2026-05-09 03:38 34.45172 -83.44278 20257 ft 361 kts 230°
2026-05-09 03:38 34.43359 -83.46358 19750 ft 359 kts 230°
2026-05-09 03:39 34.41559 -83.48422 19244 ft 356 kts 229°
2026-05-09 03:39 34.39773 -83.50468 18744 ft 353 kts 229°
2026-05-09 03:39 34.37983 -83.52518 18243 ft 351 kts 229°
2026-05-09 03:39 34.36240 -83.54514 17761 ft 348 kts 229°
2026-05-09 03:40 34.34489 -83.56516 17283 ft 346 kts 229°
2026-05-09 03:40 34.32727 -83.58530 16792 ft 349 kts 229°
2026-05-09 03:40 34.30946 -83.60570 16281 ft 357 kts 228°
2026-05-09 03:40 34.29150 -83.62619 15784 ft 356 kts 229°
2026-05-09 03:41 34.27315 -83.64633 15281 ft 355 kts 226°
2026-05-09 03:41 34.25451 -83.66600 14793 ft 352 kts 226°
2026-05-09 03:41 34.23636 -83.68516 14312 ft 350 kts 225°
2026-05-09 03:41 34.21800 -83.70461 13810 ft 348 kts 226°
2026-05-09 03:42 34.19987 -83.72385 13315 ft 346 kts 226°
2026-05-09 03:42 34.18187 -83.74298 12825 ft 344 kts 225°
2026-05-09 03:42 34.16399 -83.76196 12518 ft 336 kts 225°
2026-05-09 03:42 34.14692 -83.78004 12429 ft 322 kts 226°
2026-05-09 03:43 34.13032 -83.79763 12315 ft 310 kts 225°
2026-05-09 03:43 34.11440 -83.81451 12183 ft 299 kts 226°
2026-05-09 03:43 34.09915 -83.83069 12052 ft 288 kts 226°
2026-05-09 03:43 34.08447 -83.84634 12018 ft 277 kts 226°
2026-05-09 03:44 34.07010 -83.86185 12018 ft 278 kts 226°
2026-05-09 03:44 34.05556 -83.87749 12016 ft 277 kts 226°
2026-05-09 03:44 34.04127 -83.89284 12015 ft 276 kts 227°
2026-05-09 03:44 34.02708 -83.90805 12017 ft 269 kts 227°
2026-05-09 03:45 34.01333 -83.92278 12020 ft 266 kts 226°
2026-05-09 03:45 33.99955 -83.93757 12019 ft 265 kts 226°
2026-05-09 03:45 33.98562 -83.95248 12013 ft 266 kts 226°
2026-05-09 03:45 33.96988 -83.96436 11810 ft 270 kts 206°
2026-05-09 03:46 33.95098 -83.96884 10975 ft 292 kts 185°
2026-05-09 03:46 33.93056 -83.96751 10487 ft 292 kts 182°
2026-05-09 03:46 33.91075 -83.96599 10352 ft 280 kts 183°
2026-05-09 03:46 33.89121 -83.96490 10027 ft 276 kts 184°
2026-05-09 03:47 33.87215 -83.96405 9650 ft 275 kts 184°
2026-05-09 03:47 33.85297 -83.96323 9289 ft 274 kts 184°
2026-05-09 03:47 33.83400 -83.96244 9022 ft 269 kts 183°
2026-05-09 03:47 33.81510 -83.96165 8809 ft 269 kts 183°
2026-05-09 03:48 33.79641 -83.96088 8613 ft 268 kts 183°
2026-05-09 03:48 33.77784 -83.96011 8429 ft 269 kts 183°
2026-05-09 03:48 33.75922 -83.95953 8279 ft 261 kts 188°
2026-05-09 03:48 33.74190 -83.96336 8081 ft 249 kts 199°
2026-05-09 03:49 33.72525 -83.96891 7903 ft 241 kts 200°
2026-05-09 03:49 33.70944 -83.97437 7733 ft 234 kts 200°
2026-05-09 03:49 33.69394 -83.97970 7574 ft 226 kts 200°
2026-05-09 03:49 33.67901 -83.98483 7422 ft 221 kts 200°
2026-05-09 03:50 33.66420 -83.98991 7276 ft 224 kts 200°
2026-05-09 03:50 33.64986 -83.99677 7108 ft 219 kts 217°
2026-05-09 03:50 33.63892 -84.00921 6956 ft 216 kts 238°
2026-05-09 03:50 33.63277 -84.02554 6715 ft 217 kts 257°
2026-05-09 03:51 33.63150 -84.04379 6401 ft 218 kts 267°
2026-05-09 03:51 33.63138 -84.06187 6105 ft 217 kts 267°
2026-05-09 03:51 33.63117 -84.07994 5811 ft 216 kts 266°
2026-05-09 03:51 33.63103 -84.09782 5567 ft 213 kts 267°
2026-05-09 03:52 33.63105 -84.11549 5322 ft 215 kts 268°
2026-05-09 03:52 33.63116 -84.13361 5063 ft 216 kts 268°
2026-05-09 03:52 33.63130 -84.15118 4983 ft 212 kts 268°
2026-05-09 03:52 33.63138 -84.16914 4977 ft 217 kts 268°
2026-05-09 03:53 33.63144 -84.18751 4719 ft 219 kts 267°
2026-05-09 03:53 33.63148 -84.20543 4445 ft 217 kts 268°
2026-05-09 03:53 33.63154 -84.22356 4167 ft 215 kts 268°
2026-05-09 03:53 33.63159 -84.24111 3891 ft 211 kts 267°
2026-05-09 03:54 33.63164 -84.25848 3618 ft 205 kts 267°
2026-05-09 03:54 33.63168 -84.27540 3357 ft 200 kts 267°
2026-05-09 03:54 33.63173 -84.29175 3103 ft 188 kts 266°
2026-05-09 03:54 33.63174 -84.30726 2869 ft 187 kts 266°
2026-05-09 03:55 33.63176 -84.32271 2616 ft 182 kts 267°
2026-05-09 03:55 33.63178 -84.33752 2367 ft 172 kts 267°
2026-05-09 03:55 33.63179 -84.35136 2147 ft 159 kts 267°
2026-05-09 03:55 33.63180 -84.36404 1943 ft 151 kts 267°
2026-05-09 03:56 33.63181 -84.37687 1731 ft 154 kts 268°
2026-05-09 03:56 33.63180 -84.38972 1512 ft 155 kts 268°
2026-05-09 03:56 33.63184 -84.40254 1302 ft 153 kts 268°
2026-05-09 03:56 33.63180 -84.41511 1116 ft 151 kts 268°
2026-05-09 03:57 33.63180 -84.42742 1027 ft 129 kts 271°
2026-05-09 03:57 33.63180 -84.43594 1029 ft 76 kts 270°
2026-05-09 03:57 33.63181 -84.44011 1028 ft 26 kts 270°
2026-05-09 03:57 33.63166 -84.44142 1028 ft 11 kts 220°
2026-05-09 03:58 33.63098 -84.44154 1029 ft 8 kts 156°
2026-05-09 03:58 33.63074 -84.44091 1029 ft 10 kts 95°
2026-05-09 03:58 33.63072 -84.44001 1029 ft 11 kts 91°
2026-05-09 03:58 33.63071 -84.43902 1029 ft 12 kts 89°
2026-05-09 03:59 33.63073 -84.43793 1028 ft 14 kts 90°
2026-05-09 03:59 33.63074 -84.43660 1030 ft 16 kts 90°
2026-05-09 03:59 33.63074 -84.43511 1030 ft 19 kts 90°
2026-05-09 03:59 33.63073 -84.43343 1030 ft 21 kts 91°
2026-05-09 04:00 33.63073 -84.43162 1029 ft 21 kts 89°
2026-05-09 04:00 33.63074 -84.42999 1028 ft 15 kts 90°
2026-05-09 04:00 33.63006 -84.42910 1018 ft 20 kts 160°
2026-05-09 04:00 33.62865 -84.42857 1014 ft 20 kts 173°
2026-05-09 04:01 33.62775 -84.42833 1014 ft 8 kts 108°
2026-05-09 04:01 33.62749 -84.42796 1014 ft 5 kts 131°
2026-05-09 04:01 33.62742 -84.42766 1014 ft 3 kts 86°
2026-05-09 04:01 33.62742 -84.42756 1014 ft 1 kts 90°